Location: Jablonec nad Nisou
(50.7221°N, 15.1703°E)
Time: 01:05:23
(UTC+02:00)

Mayak - Visible Passes

Search period start: 24 April 2018 00:00
Search period end: 04 May 2018 00:00
Orbit: 583 x 605 km, 97.6° (Epoch: 23 April)

Date Brightness Start Highest point End Pass type
(mag) Time Alt. Az. Time Alt. Az. Time Alt. Az.
24 Apr 0.0 01:22:22 10° N 01:26:00 35° WNW 01:26:00 35° WNW visible
24 Apr 0.1 23:55:59 10° NNE 23:58:50 30° ENE 23:58:50 30° ENE visible
25 Apr 0.2 01:31:46 10° N 01:35:24 29° WNW 01:35:28 29° WNW visible
26 Apr -0.2 00:05:09 10° NNE 00:08:18 37° ENE 00:08:18 37° ENE visible
26 Apr 0.4 01:41:12 10° N 01:44:37 24° WNW 01:44:56 24° WNW visible
27 Apr -0.5 00:14:22 10° NNE 00:17:46 46° ENE 00:17:46 46° ENE visible
27 Apr 0.7 01:50:40 10° NNW 01:53:48 21° WNW 01:54:24 20° WNW visible
28 Apr -0.9 00:23:34 10° NNE 00:27:14 58° ENE 00:27:14 58° ENE visible
28 Apr 0.9 02:00:11 10° NNW 02:02:58 17° WNW 02:03:52 16° WNW visible
29 Apr -1.1 00:32:49 10° NNE 00:36:42 72° NE 00:36:42 72° NE visible
29 Apr 1.1 02:09:46 10° NNW 02:12:08 15° WNW 02:13:20 13° WNW visible
29 Apr 1.1 23:08:20 10° ENE 23:09:31 12° ENE 23:09:31 12° ENE visible
30 Apr -1.2 00:42:06 10° NNE 00:46:09 79° NNW 00:46:09 79° NNW visible
30 Apr 1.3 02:19:31 10° NNW 02:21:17 12° NW 02:22:47 11° WNW visible
30 Apr 0.9 23:17:01 10° NE 23:18:59 15° E 23:18:59 15° E visible
01 May -1.1 00:51:23 10° N 00:55:36 67° WNW 00:55:37 67° WNW visible
01 May 1.4 02:29:40 10° NW 02:30:25 10° NW 02:31:10 10° WNW visible
01 May 0.7 23:25:54 10° NE 23:28:26 18° E 23:28:26 18° E visible
02 May -0.8 01:00:42 10° N 01:04:50 54° WNW 01:05:03 54° W visible
02 May 0.4 23:34:53 10° NE 23:37:53 22° E 23:37:53 22° E visible
03 May -0.5 01:10:02 10° N 01:14:04 44° WNW 01:14:30 43° W visible
03 May 0.1 23:43:57 10° NE 23:47:19 27° E 23:47:19 27° E visible
